Hagerstown, MD

2:51 PM EDT on May 29, 2017 (GMT -0400)
Hagerstown Regional-Henson

Weather History for KHGR - July, 2013

Change the Weather History Date:

Saturday, July 13, 2013

  Actual Average Record
Temperature  
Mean Temperature 75 °F 76 °F  
Max Temperature 82 °F 86 °F 91 °F (1997)
Min Temperature 68 °F 66 °F 54 °F (2001)
Degree Days  
Heating Degree Days 0 0  
Month to date heating degree days 0 0  
Since 1 June heating degree days 3 18  
Since 1 July heating degree days 0 0  
Cooling Degree Days 10 11  
Month to date cooling degree days 174 136  
Year to date cooling degree days 531 421  
Since 1 June cooling degree days 414 345  
Growing Degree Days 25 (Base 50)    
Moisture  
Dew Point 68 °F    
Average Humidity 79    
Maximum Humidity 100    
Minimum Humidity 58    
Precipitation  
Precipitation 0.07 in 0.11 in 0.92 in (2005)
Month to date precipitation 1.35 1.26  
Year to date precipitation 15.14 21.34  
Sea Level Pressure  
Sea Level Pressure 30.17 in    
Wind  
Wind Speed 5 mph (NW)    
Max Wind Speed 10 mph    
Max Gust Speed 13 mph    
Visibility 8 miles    
Events Rain    
T = Trace of Precipitation, MM = Missing Value Source: NWS Daily Summary

Daily Weather History Graph

Daily Weather History Graph

Search for Another Location

Airport or City:

Trip Planner

Search our weather history database for the weather conditions in past years. The results will help you decide how hot, cold, wet, or windy it might be!

Date:

Astronomy

Jul. 13, 2013 Rise Set
Actual Time 5:54 AM EDT 8:38 PM EDT
Civil Twilight 5:22 AM EDT 9:10 PM EDT
Nautical Twilight 4:42 AM EDT 9:50 PM EDT
Astronomical Twilight 3:57 AM EDT 10:35 PM EDT
Moon 11:07 AM EDT (7/13) 11:19 PM EDT (7/13)
Length of Visible Light 15h 48m
Length of Day
14h 44m
Waxing Crescent, 25% of the Moon is Illuminated
Jul 13
Waxing Crescent
Jul 15
First Quarter
Jul 22
Full
Jul 29
Last Quarter
Aug 6
New

Hourly Weather History & Observations

Time (EDT) Temp. Heat Index Dew Point Humidity Pressure Visibility Wind Dir Wind Speed Gust Speed Precip Events Conditions
12:43 AM 69.8 °F - 66.2 °F 88% 30.10 in 7.0 mi NW 4.6 mph - 0.00 in Rain Light Rain
12:53 AM 69.1 °F - 66.9 °F 93% 30.11 in 7.0 mi NNW 5.8 mph - 0.00 in   Overcast
1:18 AM 69.8 °F - 68.0 °F 94% 30.09 in 3.0 mi NNW 5.8 mph - 0.01 in Rain Light Rain
1:53 AM 69.1 °F - 68.0 °F 96% 30.09 in 3.0 mi North 9.2 mph - 0.03 in Rain Light Rain
2:28 AM 68.0 °F - 68.0 °F 100% 30.08 in 2.5 mi NW 6.9 mph - 0.00 in Rain Light Rain
2:39 AM 68.0 °F - 68.0 °F 100% 30.08 in 2.5 mi NW 8.1 mph - 0.01 in Rain Light Rain
2:53 AM 68.0 °F - 68.0 °F 100% 30.09 in 2.0 mi NNW 10.4 mph - 0.02 in Rain Light Rain
3:11 AM 68.0 °F - 68.0 °F 100% 30.07 in 3.0 mi NNW 8.1 mph - 0.01 in Rain Light Rain
3:30 AM 68.0 °F - 66.2 °F 94% 30.07 in 6.0 mi NNW 8.1 mph - 0.01 in   Overcast
3:53 AM 68.0 °F - 66.9 °F 96% 30.09 in 6.0 mi NNW 8.1 mph - 0.01 in   Overcast
4:53 AM 68.0 °F - 66.9 °F 96% 30.10 in 7.0 mi NNW 8.1 mph - N/A   Overcast
5:53 AM 68.0 °F - 66.9 °F 96% 30.11 in 8.0 mi North 4.6 mph - N/A   Overcast
6:36 AM 69.8 °F - 66.2 °F 88% 30.10 in 10.0 mi North 5.8 mph - N/A   Overcast
6:53 AM 69.1 °F - 68.0 °F 96% 30.13 in 10.0 mi North 5.8 mph - N/A   Overcast
7:01 AM 69.8 °F - 68.0 °F 94% 30.12 in 10.0 mi North 3.5 mph - N/A   Overcast
7:26 AM 69.8 °F - 66.2 °F 88% 30.13 in 10.0 mi North 3.5 mph - N/A   Overcast
7:53 AM 70.0 °F - 68.0 °F 93% 30.16 in 6.0 mi NNW 4.6 mph - N/A   Overcast
8:53 AM 72.0 °F - 68.0 °F 87% 30.17 in 10.0 mi Calm Calm - N/A   Overcast
9:49 AM 73.4 °F - 68.0 °F 83% 30.18 in 10.0 mi Calm Calm - 0.01 in   Overcast
9:53 AM 73.0 °F - 68.0 °F 84% 30.19 in 10.0 mi NNW 3.5 mph - 0.01 in   Overcast
10:53 AM 73.9 °F - 69.1 °F 85% 30.20 in 10.0 mi Calm Calm - N/A   Overcast
11:11 AM 73.4 °F - 68.0 °F 83% 30.20 in 10.0 mi Calm Calm - N/A   Overcast
11:37 AM 73.4 °F - 69.8 °F 88% 30.21 in 10.0 mi West 5.8 mph - N/A   Overcast
11:46 AM 73.4 °F - 69.8 °F 88% 30.21 in 10.0 mi Variable 3.5 mph - N/A   Overcast
11:53 AM 73.9 °F - 69.1 °F 85% 30.23 in 10.0 mi Calm Calm - N/A   Overcast
12:32 PM 75.2 °F - 68.0 °F 78% 30.21 in 10.0 mi SW 3.5 mph - N/A   Overcast
12:39 PM 75.2 °F - 68.0 °F 78% 30.21 in 10.0 mi Calm Calm - N/A   Overcast
12:53 PM 75.9 °F - 68.0 °F 76% 30.22 in 10.0 mi Calm Calm - N/A   Overcast
1:26 PM 78.8 °F - 68.0 °F 69% 30.20 in 10.0 mi South 5.8 mph - N/A   Mostly Cloudy
1:53 PM 79.0 °F - 66.9 °F 66% 30.22 in 10.0 mi South 5.8 mph - N/A   Overcast
2:53 PM 81.0 °F 83.8 °F 68.0 °F 65% 30.22 in 10.0 mi South 5.8 mph - N/A   Mostly Cloudy
3:53 PM 82.0 °F 84.1 °F 66.0 °F 58% 30.22 in 10.0 mi South 6.9 mph - N/A   Mostly Cloudy
4:53 PM 81.0 °F 83.3 °F 66.9 °F 62% 30.22 in 10.0 mi SSE 6.9 mph - N/A   Overcast
5:53 PM 82.0 °F 84.5 °F 66.9 °F 60% 30.23 in 10.0 mi SSW 4.6 mph - N/A   Mostly Cloudy
6:53 PM 82.0 °F 84.5 °F 66.9 °F 60% 30.23 in 10.0 mi South 3.5 mph - N/A   Clear
7:53 PM 81.0 °F 84.1 °F 69.1 °F 67% 30.24 in 10.0 mi Calm Calm - N/A   Mostly Cloudy
8:53 PM 80.1 °F 83.2 °F 70.0 °F 71% 30.25 in 10.0 mi SE 5.8 mph - N/A   Overcast
9:53 PM 78.1 °F - 70.0 °F 76% 30.27 in 10.0 mi East 4.6 mph - N/A   Mostly Cloudy
10:53 PM 78.1 °F - 70.0 °F 76% 30.29 in 10.0 mi Calm Calm - N/A   Clear
11:53 PM 77.0 °F - 71.1 °F 82% 30.30 in 10.0 mi East 4.6 mph - N/A   Mostly Cloudy